N463TD KOXC-KVT8

Flight info

Callsign N463TD
Flight time 0h 55m
Altitude 8000
Route LRP SBJ VFR NEW YORK CLASS B
Aircraft AEST/L-SDFGRY/S

Departure

Time 2026-04-29 11:55
Airport Waterbury Oxford Airport (KOXC)

Arrival

Time 2026-04-29 12:50
Airport Shelburne Airport (KVT8)
Time Latitude Longitude Altitude Speed Heading
2026-04-29 11:41 41.47885 -73.13726 709 ft 0 kts 262°
2026-04-29 11:42 41.47854 -73.13731 709 ft 12 kts 175°
2026-04-29 11:42 41.47754 -73.13721 709 ft 14 kts 174°
2026-04-29 11:42 41.47701 -73.13690 709 ft 5 kts 88°
2026-04-29 11:43 41.47765 -73.13713 709 ft 12 kts 354°
2026-04-29 11:43 41.47764 -73.13654 703 ft 16 kts 169°
2026-04-29 11:43 41.47632 -73.13626 697 ft 21 kts 170°
2026-04-29 11:43 41.47475 -73.13592 695 ft 24 kts 171°
2026-04-29 11:44 41.47329 -73.13558 693 ft 9 kts 167°
2026-04-29 11:44 41.47321 -73.13555 693 ft 0 kts 166°
2026-04-29 11:48 41.47319 -73.13555 693 ft 3 kts 169°
2026-04-29 11:48 41.47244 -73.13542 690 ft 15 kts 173°
2026-04-29 11:48 41.47152 -73.13519 688 ft 15 kts 167°
2026-04-29 11:49 41.47037 -73.13490 687 ft 13 kts 134°
2026-04-29 11:49 41.47037 -73.13453 687 ft 0 kts 41°
2026-04-29 11:53 41.47039 -73.13446 687 ft 6 kts 78°
2026-04-29 11:54 41.47061 -73.13369 687 ft 8 kts 343°
2026-04-29 11:54 41.47110 -73.13363 688 ft 0 kts 349°
2026-04-29 11:54 41.47197 -73.13383 690 ft 50 kts 350°
2026-04-29 11:54 41.47757 -73.13508 737 ft 100 kts 348°
2026-04-29 11:55 41.48517 -73.13677 941 ft 124 kts 349°
2026-04-29 11:55 41.49430 -73.13877 1303 ft 138 kts 349°
2026-04-29 11:55 41.50384 -73.14107 1823 ft 140 kts 346°
2026-04-29 11:55 41.51333 -73.14366 2313 ft 140 kts 345°
2026-04-29 11:56 41.52289 -73.14636 2746 ft 139 kts 345°
2026-04-29 11:56 41.53233 -73.14915 3058 ft 141 kts 342°
2026-04-29 11:56 41.54199 -73.15238 3332 ft 144 kts 343°
2026-04-29 11:56 41.55162 -73.15560 3667 ft 141 kts 342°
2026-04-29 11:57 41.56119 -73.15914 3928 ft 144 kts 340°
2026-04-29 11:57 41.57084 -73.16291 4188 ft 145 kts 345°
2026-04-29 11:57 41.58095 -73.16361 4412 ft 149 kts
2026-04-29 11:57 41.59100 -73.16020 4685 ft 148 kts 15°
2026-04-29 11:58 41.60075 -73.15627 4984 ft 146 kts 13°
2026-04-29 11:58 41.61067 -73.15263 5165 ft 149 kts 13°
2026-04-29 11:58 41.62056 -73.14864 5419 ft 147 kts 14°
2026-04-29 11:58 41.63043 -73.14524 5643 ft 147 kts
2026-04-29 11:59 41.64043 -73.14227 5841 ft 147 kts 10°
2026-04-29 11:59 41.65038 -73.13940 6055 ft 146 kts
2026-04-29 11:59 41.66029 -73.13646 6240 ft 147 kts
2026-04-29 11:59 41.67011 -73.13312 6473 ft 147 kts 11°
2026-04-29 12:00 41.67993 -73.12991 6733 ft 144 kts
2026-04-29 12:00 41.68988 -73.12742 6917 ft 147 kts
2026-04-29 12:00 41.70015 -73.12502 7042 ft 153 kts
2026-04-29 12:00 41.71103 -73.12273 7078 ft 163 kts
2026-04-29 12:01 41.72250 -73.12022 7100 ft 172 kts
2026-04-29 12:01 41.73476 -73.12064 7058 ft 181 kts 352°
2026-04-29 12:01 41.74748 -73.12111 7061 ft 185 kts
2026-04-29 12:01 41.76029 -73.11856 7077 ft 189 kts 11°
2026-04-29 12:02 41.77311 -73.11355 7066 ft 195 kts 15°
2026-04-29 12:02 41.78596 -73.10796 7045 ft 191 kts 15°
2026-04-29 12:02 41.79859 -73.10210 7067 ft 194 kts 17°
2026-04-29 12:02 41.81145 -73.09618 7073 ft 197 kts 15°
2026-04-29 12:03 41.82469 -73.09064 7059 ft 201 kts 14°
2026-04-29 12:03 41.83824 -73.08555 7070 ft 203 kts 12°
2026-04-29 12:03 41.85196 -73.08084 7066 ft 204 kts 11°
2026-04-29 12:03 41.86578 -73.07648 7063 ft 204 kts 10°
2026-04-29 12:04 41.87972 -73.07242 7062 ft 205 kts
2026-04-29 12:04 41.89367 -73.06858 7047 ft 205 kts
2026-04-29 12:04 41.90765 -73.06480 7060 ft 205 kts
2026-04-29 12:04 41.92159 -73.06094 7060 ft 205 kts
2026-04-29 12:05 41.93531 -73.05696 7054 ft 204 kts 10°
2026-04-29 12:05 41.94939 -73.05269 7054 ft 205 kts 10°
2026-04-29 12:05 41.97792 -73.04393 7057 ft 205 kts 10°
2026-04-29 12:06 41.99184 -73.03967 7055 ft 205 kts 10°
2026-04-29 12:06 42.00578 -73.03542 7050 ft 205 kts 10°
2026-04-29 12:06 42.01971 -73.03123 7050 ft 205 kts 10°
2026-04-29 12:06 42.03365 -73.02706 7050 ft 205 kts 10°
2026-04-29 12:07 42.04759 -73.02292 7050 ft 205 kts 10°
2026-04-29 12:07 42.06155 -73.01879 7052 ft 206 kts 10°
2026-04-29 12:07 42.07552 -73.01463 7050 ft 206 kts 10°
2026-04-29 12:07 42.08950 -73.01043 7046 ft 206 kts 10°
2026-04-29 12:08 42.10329 -73.00626 7049 ft 206 kts 10°
2026-04-29 12:08 42.11723 -73.00202 7050 ft 205 kts 10°
2026-04-29 12:08 42.13113 -72.99780 7059 ft 205 kts 10°
2026-04-29 12:08 42.14502 -72.99361 7049 ft 205 kts 10°
2026-04-29 12:09 42.15893 -72.98942 7047 ft 205 kts 10°
2026-04-29 12:09 42.17286 -72.98521 7048 ft 205 kts 10°
2026-04-29 12:09 42.18679 -72.98100 7050 ft 205 kts 10°
2026-04-29 12:09 42.20072 -72.97681 7031 ft 205 kts 10°
2026-04-29 12:10 42.21468 -72.97262 7027 ft 206 kts 10°
2026-04-29 12:10 42.22867 -72.96843 7027 ft 206 kts 10°
2026-04-29 12:10 42.24265 -72.96422 7027 ft 206 kts 10°
2026-04-29 12:10 42.25659 -72.96002 7028 ft 205 kts 10°
2026-04-29 12:11 42.27057 -72.95580 7028 ft 205 kts 10°
2026-04-29 12:11 42.28453 -72.95156 7030 ft 206 kts 10°
2026-04-29 12:11 42.29855 -72.94735 7043 ft 207 kts
2026-04-29 12:11 42.31284 -72.94469 7046 ft 208 kts
2026-04-29 12:12 42.32725 -72.94453 7048 ft 207 kts 355°
2026-04-29 12:12 42.34157 -72.94610 7046 ft 206 kts 352°
2026-04-29 12:12 42.35585 -72.94828 7046 ft 207 kts 352°
2026-04-29 12:12 42.37022 -72.95030 7043 ft 208 kts 353°
2026-04-29 12:13 42.38452 -72.95148 7026 ft 204 kts 356°
2026-04-29 12:13 42.39876 -72.95167 7034 ft 205 kts 358°
2026-04-29 12:13 42.41300 -72.95118 7037 ft 205 kts 360°
2026-04-29 12:13 42.42713 -72.95036 7052 ft 204 kts
2026-04-29 12:14 42.44145 -72.94972 7047 ft 207 kts 359°
2026-04-29 12:14 42.45584 -72.94935 7052 ft 207 kts 359°
2026-04-29 12:14 42.47025 -72.94919 7054 ft 207 kts 358°
2026-04-29 12:14 42.48467 -72.94927 7048 ft 207 kts 358°
2026-04-29 12:15 42.49911 -72.94949 7051 ft 207 kts 357°
2026-04-29 12:15 42.51350 -72.94971 7054 ft 207 kts 357°
2026-04-29 12:15 42.52792 -72.94987 7051 ft 207 kts 358°
2026-04-29 12:15 42.54235 -72.94990 7052 ft 207 kts 358°
2026-04-29 12:16 42.55679 -72.94989 7048 ft 207 kts 358°
2026-04-29 12:16 42.57124 -72.94989 7046 ft 208 kts 358°
2026-04-29 12:16 42.58549 -72.94986 7046 ft 207 kts 358°
2026-04-29 12:16 42.59990 -72.94983 7045 ft 207 kts 358°
2026-04-29 12:17 42.61432 -72.94980 7052 ft 207 kts 358°
2026-04-29 12:17 42.62877 -72.94978 7045 ft 208 kts 358°
2026-04-29 12:17 42.64321 -72.94976 7047 ft 207 kts 358°
2026-04-29 12:17 42.65766 -72.94978 7045 ft 208 kts 358°
2026-04-29 12:18 42.67214 -72.94983 7045 ft 208 kts 358°
2026-04-29 12:18 42.68664 -72.94986 7046 ft 208 kts 358°
2026-04-29 12:18 42.70112 -72.94990 7050 ft 208 kts 358°
2026-04-29 12:18 42.71565 -72.94992 7051 ft 209 kts 358°
2026-04-29 12:19 42.73017 -72.94992 7044 ft 209 kts 358°
2026-04-29 12:19 42.74467 -72.94992 7053 ft 209 kts 358°
2026-04-29 12:19 42.75924 -72.94987 7048 ft 210 kts 358°
2026-04-29 12:19 42.77383 -72.94985 7047 ft 209 kts 358°
2026-04-29 12:20 42.78840 -72.94993 7044 ft 210 kts 358°
2026-04-29 12:20 42.80302 -72.94996 7042 ft 210 kts 358°
2026-04-29 12:20 42.81763 -72.95001 7043 ft 210 kts 358°
2026-04-29 12:20 42.83223 -72.95008 7042 ft 210 kts 358°
2026-04-29 12:21 42.84684 -72.95005 7047 ft 210 kts 358°
2026-04-29 12:21 42.86141 -72.95005 7039 ft 209 kts 358°
2026-04-29 12:21 42.87597 -72.95006 7041 ft 209 kts 358°
2026-04-29 12:21 42.89052 -72.95006 7049 ft 209 kts 358°
2026-04-29 12:22 42.90506 -72.95010 7043 ft 209 kts 358°
2026-04-29 12:22 42.91956 -72.95009 7045 ft 209 kts 358°
2026-04-29 12:22 42.93410 -72.95009 7043 ft 209 kts 358°
2026-04-29 12:22 42.94865 -72.95019 7050 ft 210 kts 358°
2026-04-29 12:23 42.96330 -72.95021 7046 ft 211 kts 358°
2026-04-29 12:23 42.97798 -72.95021 7046 ft 211 kts 358°
2026-04-29 12:23 42.99264 -72.95024 7044 ft 211 kts 358°
2026-04-29 12:23 43.00731 -72.95021 7044 ft 211 kts 358°
2026-04-29 12:24 43.02177 -72.95022 7041 ft 210 kts 358°
2026-04-29 12:24 43.03641 -72.95022 7043 ft 211 kts 358°
2026-04-29 12:24 43.05131 -72.95021 7040 ft 211 kts 358°
2026-04-29 12:24 43.06578 -72.95029 7044 ft 211 kts 358°
2026-04-29 12:25 43.08066 -72.95032 7043 ft 211 kts 358°
2026-04-29 12:25 43.09515 -72.95028 7041 ft 211 kts 358°
2026-04-29 12:25 43.12454 -72.95032 7037 ft 211 kts 358°
2026-04-29 12:26 43.13923 -72.95030 7041 ft 211 kts 358°
2026-04-29 12:26 43.15386 -72.95036 7039 ft 211 kts 358°
2026-04-29 12:26 43.16855 -72.95039 7035 ft 211 kts 358°
2026-04-29 12:26 43.18320 -72.95043 7028 ft 210 kts 358°
2026-04-29 12:27 43.19782 -72.95048 7033 ft 210 kts 358°
2026-04-29 12:27 43.21246 -72.95044 7030 ft 211 kts 358°
2026-04-29 12:27 43.22716 -72.95047 7030 ft 211 kts 358°
2026-04-29 12:27 43.24186 -72.95050 7036 ft 211 kts 358°
2026-04-29 12:28 43.25657 -72.95046 7028 ft 211 kts 358°
2026-04-29 12:28 43.27127 -72.95048 7027 ft 212 kts 358°
2026-04-29 12:28 43.28600 -72.95050 7025 ft 212 kts 358°
2026-04-29 12:28 43.30073 -72.95047 7025 ft 212 kts 358°
2026-04-29 12:29 43.31543 -72.95053 7027 ft 211 kts 358°
2026-04-29 12:29 43.33013 -72.95056 7022 ft 212 kts 358°
2026-04-29 12:29 43.34482 -72.95047 7027 ft 211 kts 358°
2026-04-29 12:29 43.35950 -72.95049 7023 ft 211 kts 358°
2026-04-29 12:30 43.37423 -72.95038 7032 ft 212 kts 358°
2026-04-29 12:30 43.38897 -72.95040 7027 ft 212 kts 357°
2026-04-29 12:30 43.40371 -72.95055 7026 ft 212 kts 357°
2026-04-29 12:30 43.41847 -72.95063 7033 ft 212 kts 357°
2026-04-29 12:31 43.43319 -72.95077 7027 ft 212 kts 357°
2026-04-29 12:31 43.44784 -72.95087 7026 ft 208 kts 358°
2026-04-29 12:31 43.46176 -72.95090 7016 ft 197 kts 358°
2026-04-29 12:31 43.47553 -72.95088 7030 ft 201 kts 358°
2026-04-29 12:32 43.48961 -72.95082 7026 ft 206 kts 358°
2026-04-29 12:32 43.50417 -72.95076 7023 ft 211 kts 357°
2026-04-29 12:32 43.51884 -72.95084 7028 ft 210 kts 358°
2026-04-29 12:32 43.53346 -72.95074 7029 ft 211 kts 358°
2026-04-29 12:33 43.54819 -72.95072 7026 ft 211 kts 358°
2026-04-29 12:33 43.56286 -72.95075 7033 ft 211 kts 358°
2026-04-29 12:33 43.57757 -72.95076 7023 ft 212 kts 358°
2026-04-29 12:33 43.59226 -72.95122 7027 ft 210 kts 354°
2026-04-29 12:34 43.60671 -72.95378 6994 ft 209 kts 346°
2026-04-29 12:34 43.62067 -72.95911 6993 ft 208 kts 338°
2026-04-29 12:34 43.63403 -72.96664 6994 ft 207 kts 334°
2026-04-29 12:34 43.64733 -72.97431 6990 ft 207 kts 336°
2026-04-29 12:35 43.66088 -72.98094 6992 ft 207 kts 340°
2026-04-29 12:35 43.67020 -72.98484 6995 ft 207 kts 342°
2026-04-29 12:35 43.68877 -72.99127 6993 ft 208 kts 346°
2026-04-29 12:35 43.70292 -72.99527 6991 ft 208 kts 346°
2026-04-29 12:36 43.71230 -72.99782 6995 ft 207 kts 346°
2026-04-29 12:36 43.72644 -73.00192 6992 ft 208 kts 346°
2026-04-29 12:36 43.74054 -73.00635 6988 ft 208 kts 345°
2026-04-29 12:36 43.75457 -73.01104 7002 ft 208 kts 343°
2026-04-29 12:37 43.76855 -73.01617 6992 ft 208 kts 343°
2026-04-29 12:37 43.78251 -73.02150 6988 ft 209 kts 342°
2026-04-29 12:37 43.79649 -73.02671 6992 ft 208 kts 342°
2026-04-29 12:37 43.81047 -73.03191 6998 ft 208 kts 343°
2026-04-29 12:38 43.82386 -73.03684 6908 ft 193 kts 343°
2026-04-29 12:38 43.83702 -73.04168 6429 ft 201 kts 342°
2026-04-29 12:38 43.85066 -73.04753 5885 ft 207 kts 339°
2026-04-29 12:38 43.86404 -73.05384 5648 ft 199 kts 340°
2026-04-29 12:39 43.87720 -73.05868 5381 ft 195 kts 344°
2026-04-29 12:39 43.89052 -73.06333 4968 ft 199 kts 341°
2026-04-29 12:39 43.90363 -73.06896 4610 ft 200 kts 340°
2026-04-29 12:39 43.91703 -73.07455 4339 ft 197 kts 340°
2026-04-29 12:40 43.93027 -73.07969 4025 ft 200 kts 341°
2026-04-29 12:40 43.94369 -73.08470 3676 ft 203 kts 341°
2026-04-29 12:40 43.95740 -73.08971 3359 ft 204 kts 343°
2026-04-29 12:40 43.97119 -73.09454 3056 ft 206 kts 343°
2026-04-29 12:41 43.98493 -73.09946 2706 ft 203 kts 344°
2026-04-29 12:41 43.99852 -73.10416 2378 ft 201 kts 346°
2026-04-29 12:41 44.01206 -73.10849 2087 ft 199 kts 346°
2026-04-29 12:41 44.02549 -73.11285 1831 ft 201 kts 346°
2026-04-29 12:42 44.03932 -73.11756 1692 ft 205 kts 345°
2026-04-29 12:42 44.05311 -73.12238 1700 ft 205 kts 345°
2026-04-29 12:42 44.06720 -73.12700 1683 ft 211 kts 345°
2026-04-29 12:42 44.08142 -73.13212 1665 ft 210 kts 343°
2026-04-29 12:43 44.09516 -73.13737 1829 ft 201 kts 342°
2026-04-29 12:43 44.10878 -73.14297 1769 ft 207 kts 343°
2026-04-29 12:43 44.12286 -73.14789 1697 ft 210 kts 346°
2026-04-29 12:43 44.13715 -73.15181 1752 ft 208 kts 350°
2026-04-29 12:44 44.15133 -73.15433 1772 ft 210 kts 351°
2026-04-29 12:44 44.16583 -73.15718 1733 ft 210 kts 349°
2026-04-29 12:44 44.18025 -73.16065 1729 ft 211 kts 348°
2026-04-29 12:44 44.19467 -73.16410 1760 ft 210 kts 349°
2026-04-29 12:45 44.20925 -73.16726 1755 ft 212 kts 350°
2026-04-29 12:45 44.22384 -73.17047 1748 ft 214 kts 350°
2026-04-29 12:45 44.23842 -73.17472 1747 ft 212 kts 344°
2026-04-29 12:45 44.25251 -73.18056 1718 ft 212 kts 341°
2026-04-29 12:46 44.26665 -73.18670 1715 ft 213 kts 341°
2026-04-29 12:46 44.28073 -73.19279 1702 ft 211 kts 342°
2026-04-29 12:46 44.29450 -73.19884 1688 ft 203 kts 341°
2026-04-29 12:46 44.30782 -73.20471 1515 ft 198 kts 341°
2026-04-29 12:47 44.32103 -73.21044 1322 ft 198 kts 340°
2026-04-29 12:47 44.33359 -73.21672 1347 ft 186 kts 337°
2026-04-29 12:47 44.34589 -73.22219 1094 ft 186 kts 356°
2026-04-29 12:47 44.35837 -73.21914 1026 ft 176 kts 15°
2026-04-29 12:48 44.37010 -73.21486 904 ft 175 kts 13°
2026-04-29 12:48 44.38176 -73.21443 862 ft 162 kts 350°
2026-04-29 12:48 44.39254 -73.21751 865 ft 146 kts 348°
2026-04-29 12:48 44.40150 -73.22084 784 ft 129 kts 321°
2026-04-29 12:49 44.40376 -73.23121 679 ft 115 kts 234°
2026-04-29 12:49 44.39747 -73.23450 585 ft 103 kts 158°
2026-04-29 12:49 44.39058 -73.23087 529 ft 105 kts 164°
2026-04-29 12:49 44.38341 -73.22927 561 ft 104 kts 176°
2026-04-29 12:50 44.37584 -73.22885 569 ft 109 kts 181°
2026-04-29 12:50 44.36925 -73.22857 456 ft 85 kts 170°
2026-04-29 12:50 44.36376 -73.22715 333 ft 77 kts 170°
2026-04-29 12:50 44.35995 -73.22621 327 ft 29 kts 168°
2026-04-29 12:51 44.35913 -73.22598 329 ft 6 kts 135°
2026-04-29 12:51 44.35952 -73.22592 328 ft 14 kts 338°
2026-04-29 12:51 44.36048 -73.22630 325 ft 18 kts 351°
2026-04-29 12:51 44.36162 -73.22652 324 ft 17 kts 356°
2026-04-29 12:52 44.36262 -73.22656 321 ft 13 kts 11°
2026-04-29 12:52 44.36292 -73.22659 321 ft 0 kts 245°